Time,TemperatureF,DewpointF,PressureIn,WindDirection,WindDirectionDegrees,WindSpeedMPH,WindSpeedGustMPH,Humidity,HourlyPrecipIn,Conditions,Clouds,dailyrainin,SolarRadiationWatts/m^2,SoftwareType,DateUTC
2013-05-04 00:00:00,40.0,36.0,-100.00,NNE,22,7.0,-999.0,86,-99.99,,,-99.99,0.000000,,2013-05-04 05:00:00,
2013-05-04 00:43:00,40.0,36.0,-100.00,NNE,22,7.0,-999.0,86,-99.99,,,-99.99,0.000000,,2013-05-04 05:43:00,
2013-05-04 00:52:00,40.0,36.0,-100.00,NNE,22,7.0,-999.0,86,-99.99,,,-99.99,0.000000,,2013-05-04 05:52:00,
2013-05-04 01:00:00,39.0,36.0,-100.00,NNE,22,6.0,-999.0,88,-99.99,,,-99.99,0.000000,,2013-05-04 06:00:00,
2013-05-04 01:42:00,39.0,36.0,-100.00,NNE,22,6.0,-999.0,88,-99.99,,,-99.99,0.000000,,2013-05-04 06:42:00,
2013-05-04 01:52:00,39.0,36.0,-100.00,NNE,22,6.0,-999.0,88,-99.99,,,-99.99,0.000000,,2013-05-04 06:52:00,
2013-05-04 02:00:00,39.0,36.0,-100.00,NNE,22,6.0,-999.0,91,-99.99,,,-99.99,0.000000,,2013-05-04 07:00:00,
2013-05-04 02:42:00,39.0,36.0,-100.00,NNE,22,6.0,-999.0,91,-99.99,,,-99.99,0.000000,,2013-05-04 07:42:00,
2013-05-04 02:52:00,39.0,36.0,-100.00,NNE,22,6.0,-999.0,91,-99.99,,,-99.99,0.000000,,2013-05-04 07:52:00,
2013-05-04 03:00:00,39.0,37.0,-100.00,NNE,22,5.0,-999.0,92,-99.99,,,-99.99,0.000000,,2013-05-04 08:00:00,
2013-05-04 03:42:00,39.0,37.0,-100.00,NNE,22,5.0,-999.0,92,-99.99,,,-99.99,0.000000,,2013-05-04 08:42:00,
2013-05-04 03:52:00,39.0,37.0,-100.00,NNE,22,5.0,-999.0,92,-99.99,,,-99.99,0.000000,,2013-05-04 08:52:00,
2013-05-04 04:00:00,40.0,38.0,-100.00,NE,45,5.0,-999.0,91,-99.99,,,-99.99,0.000000,,2013-05-04 09:00:00,
2013-05-04 04:42:00,40.0,38.0,-100.00,NE,45,5.0,-999.0,91,-99.99,,,-99.99,0.000000,,2013-05-04 09:42:00,
2013-05-04 04:53:00,40.0,38.0,-100.00,NE,45,5.0,-999.0,91,-99.99,,,-99.99,0.000000,,2013-05-04 09:53:00,
2013-05-04 05:00:00,40.0,38.0,-100.00,NE,45,4.0,-999.0,91,-99.99,,,-99.99,0.000000,,2013-05-04 10:00:00,
2013-05-04 05:42:00,40.0,38.0,-100.00,NE,45,4.0,-999.0,91,-99.99,,,-99.99,0.000000,,2013-05-04 10:42:00,
2013-05-04 05:53:00,40.0,38.0,-100.00,NE,45,4.0,-999.0,91,-99.99,,,-99.99,0.000000,,2013-05-04 10:53:00,
2013-05-04 06:46:00,41.0,38.0,-100.00,NE,45,4.0,-999.0,91,-99.99,,,-99.99,4.640000,,2013-05-04 11:46:00,
2013-05-04 08:00:00,45.0,40.0,-100.00,ENE,67,4.0,-999.0,85,-99.99,,,-99.99,118.320000,,2013-05-04 13:00:00,
2013-05-04 08:42:00,45.0,40.0,-100.00,ENE,67,4.0,-999.0,85,-99.99,,,-99.99,118.320000,,2013-05-04 13:42:00,
2013-05-04 08:52:00,45.0,40.0,-100.00,ENE,67,4.0,-999.0,85,-99.99,,,-99.99,118.320000,,2013-05-04 13:52:00,
2013-05-04 09:00:00,49.0,42.0,-100.00,ENE,67,3.0,-999.0,77,-99.99,,,-99.99,280.720001,,2013-05-04 14:00:00,
2013-05-04 09:42:00,49.0,42.0,-100.00,ENE,67,3.0,-999.0,77,-99.99,,,-99.99,280.720001,,2013-05-04 14:42:00,
2013-05-04 09:52:00,49.0,42.0,-100.00,ENE,67,3.0,-999.0,77,-99.99,,,-99.99,280.720001,,2013-05-04 14:52:00,
2013-05-04 10:00:00,55.0,44.0,-100.00,ENE,67,3.0,-999.0,65,-99.99,,,-99.99,441.959991,,2013-05-04 15:00:00,
2013-05-04 10:43:00,55.0,44.0,-100.00,ENE,67,3.0,-999.0,65,-99.99,,,-99.99,441.959991,,2013-05-04 15:43:00,
2013-05-04 10:53:00,55.0,44.0,-100.00,ENE,67,3.0,-999.0,65,-99.99,,,-99.99,441.959991,,2013-05-04 15:53:00,
2013-05-04 11:00:00,59.0,45.0,-100.00,ENE,67,3.0,-999.0,57,-99.99,,,-99.99,613.640015,,2013-05-04 16:00:00,
2013-05-04 11:42:00,59.0,45.0,-100.00,ENE,67,3.0,-999.0,57,-99.99,,,-99.99,613.640015,,2013-05-04 16:42:00,
2013-05-04 11:52:00,59.0,45.0,-100.00,ENE,67,3.0,-999.0,57,-99.99,,,-99.99,613.640015,,2013-05-04 16:52:00,
2013-05-04 12:00:00,61.0,45.0,-100.00,WSW,247,3.0,-999.0,57,-99.99,,,-99.99,704.119995,,2013-05-04 17:00:00,
2013-05-04 12:42:00,61.0,45.0,-100.00,WSW,247,3.0,-999.0,57,-99.99,,,-99.99,704.119995,,2013-05-04 17:42:00,
2013-05-04 12:52:00,61.0,45.0,-100.00,WSW,247,3.0,-999.0,57,-99.99,,,-99.99,704.119995,,2013-05-04 17:52:00,
2013-05-04 13:00:00,65.0,46.0,-100.00,WSW,247,2.0,-999.0,49,-99.99,,,-99.99,830.559998,,2013-05-04 18:00:00,
2013-05-04 13:42:00,65.0,46.0,-100.00,WSW,247,2.0,-999.0,49,-99.99,,,-99.99,830.559998,,2013-05-04 18:42:00,
2013-05-04 13:52:00,65.0,46.0,-100.00,WSW,247,2.0,-999.0,49,-99.99,,,-99.99,830.559998,,2013-05-04 18:52:00,
2013-05-04 14:00:00,68.0,45.0,-100.00,NE,45,4.0,-999.0,43,-99.99,,,-99.99,814.320007,,2013-05-04 19:00:00,
2013-05-04 14:42:00,68.0,45.0,-100.00,NE,45,4.0,-999.0,43,-99.99,,,-99.99,814.320007,,2013-05-04 19:42:00,
2013-05-04 14:52:00,68.0,45.0,-100.00,NE,45,4.0,-999.0,43,-99.99,,,-99.99,814.320007,,2013-05-04 19:52:00,
2013-05-04 15:00:00,70.0,44.0,-100.00,East,90,3.0,-999.0,38,-99.99,,,-99.99,771.400024,,2013-05-04 20:00:00,
2013-05-04 15:42:00,70.0,44.0,-100.00,East,90,3.0,-999.0,38,-99.99,,,-99.99,771.400024,,2013-05-04 20:42:00,
2013-05-04 15:52:00,70.0,44.0,-100.00,East,90,3.0,-999.0,38,-99.99,,,-99.99,771.400024,,2013-05-04 20:52:00,
2013-05-04 16:00:00,71.0,42.0,-100.00,NE,45,4.0,-999.0,35,-99.99,,,-99.99,600.880005,,2013-05-04 21:00:00,
2013-05-04 16:43:00,71.0,42.0,-100.00,NE,45,4.0,-999.0,35,-99.99,,,-99.99,600.880005,,2013-05-04 21:43:00,
2013-05-04 16:53:00,71.0,42.0,-100.00,NE,45,4.0,-999.0,35,-99.99,,,-99.99,600.880005,,2013-05-04 21:53:00,
2013-05-04 17:00:00,71.0,42.0,-100.00,NNE,22,7.0,-999.0,35,-99.99,,,-99.99,511.559998,,2013-05-04 22:00:00,
2013-05-04 17:42:00,71.0,42.0,-100.00,NNE,22,7.0,-999.0,35,-99.99,,,-99.99,511.559998,,2013-05-04 22:42:00,
2013-05-04 17:52:00,71.0,42.0,-100.00,NNE,22,7.0,-999.0,35,-99.99,,,-99.99,511.559998,,2013-05-04 22:52:00,
2013-05-04 18:00:00,71.0,42.0,-100.00,NE,45,5.0,-999.0,34,-99.99,,,-99.99,294.640015,,2013-05-04 23:00:00,
2013-05-04 18:42:00,71.0,42.0,-100.00,NE,45,5.0,-999.0,34,-99.99,,,-99.99,294.640015,,2013-05-04 23:42:00,
2013-05-04 18:52:00,71.0,42.0,-100.00,NE,45,5.0,-999.0,34,-99.99,,,-99.99,294.640015,,2013-05-04 23:52:00,
2013-05-04 20:00:00,63.0,42.0,-100.00,NE,45,4.0,-999.0,45,-99.99,,,-99.99,51.040001,,2013-05-05 01:00:00,
2013-05-04 20:42:00,63.0,42.0,-100.00,NE,45,4.0,-999.0,45,-99.99,,,-99.99,51.040001,,2013-05-05 01:42:00,
2013-05-04 20:52:00,63.0,42.0,-100.00,NE,45,4.0,-999.0,45,-99.99,,,-99.99,51.040001,,2013-05-05 01:52:00,
2013-05-04 21:00:00,58.0,43.0,-100.00,NNE,22,6.0,-999.0,56,-99.99,,,-99.99,0.000000,,2013-05-05 02:00:00,
2013-05-04 21:42:00,58.0,43.0,-100.00,NNE,22,6.0,-999.0,56,-99.99,,,-99.99,0.000000,,2013-05-05 02:42:00,
2013-05-04 21:52:00,58.0,43.0,-100.00,NNE,22,6.0,-999.0,56,-99.99,,,-99.99,0.000000,,2013-05-05 02:52:00,
2013-05-04 22:00:00,50.0,39.0,-100.00,NE,45,8.0,-999.0,65,-99.99,,,-99.99,0.000000,,2013-05-05 03:00:00,
2013-05-04 22:42:00,50.0,39.0,-100.00,NE,45,8.0,-999.0,65,-99.99,,,-99.99,0.000000,,2013-05-05 03:42:00,
2013-05-04 22:53:00,50.0,39.0,-100.00,NE,45,8.0,-999.0,65,-99.99,,,-99.99,0.000000,,2013-05-05 03:53:00,
2013-05-04 23:00:00,47.0,38.0,-100.00,NNE,22,7.0,-999.0,71,-99.99,,,-99.99,0.000000,,2013-05-05 04:00:00,
2013-05-04 23:43:00,47.0,38.0,-100.00,NNE,22,7.0,-999.0,71,-99.99,,,-99.99,0.000000,,2013-05-05 04:43:00,
2013-05-04 23:53:00,47.0,38.0,-100.00,NNE,22,7.0,-999.0,71,-99.99,,,-99.99,0.000000,,2013-05-05 04:53:00,